User: anonymous   Login
Location: Unspecified
(0.0000°N, 0.0000°E)
Time: 23:00:12
(UTC+00:00)
Language:

STARLINK-6319 - Orbit

View from above orbital plane
View from above orbital plane
View from above satellite
View from above satellite

Ground track
Ground track

The orbit is defined by the following mean orbital elements,

1 56532U          26145.31914715 +.00000000 +00000-0 +14234-4 0 00001
2 56532  43.0024 125.4706 0000976 281.5762  78.4980 15.27577166    07
Epoch (UTC): 25 May 2026 07:39:34
Eccentricity: 0.0000976
inclination: 43.0024°
perigee height: 482 km
apogee height: 484 km
right ascension of ascending node: 125.4706°
argument of perigee: 281.5762°
revolutions per day: 15.27577166
mean anomaly at epoch: 78.4980°

The dashed part of the orbit path shows where the satellite is in the earth's shadow,  

DLR